Helena Regional Airport
KHLN : now visible

Airfield :











YOU CAN JOIN US ON...

 
LOGIN :

Register | Disclaimer

   EN    FR    IT 

 









Legend :    VFR   Marginal VFR   IFR   Intensive IFR   Very Intensive IFR
Visi :
Ceiling :
>= 8 km
>= 3000ft
5 to 8 km
1000 to 3000 ft
1500m to 5 km
500 to 1000 ft
800 to 1500m
200 to 500 ft
< 800m
< 200 ft
Symbols :   Thunderstorms  Fog  Heavy snow  Heavy precipitations  Wind > 20 kt






- Airport Elevation : 3877 ft
- IATA code : HLN


KHLN - Helena Regional

CURRENT METAR :
  • 061553Z 00000KT 10SM CLR 19/09 A3005 RMK AO2 SLP164 T01890094

EXPIRED METARs :
  • 061453Z 00000KT 10SM SCT110 17/09 A3007 RMK AO2 SLP168 T01720089 50003
  • 061353Z 07004KT 10SM FEW110 15/08 A3008 RMK AO2 SLP171 T01500083

TAF KHLN
Valid from the 06 at 12:00 until the 07 at 12:00 UTC


061120Z 0612/0712 VRB03KT P6SM SCT110
FM061800 VRB04KT P6SM VCTS FEW070CB FEW100
FM062000 14007KT P6SM FEW080 FEW100
PROB30 0621/0624 4SM -TSRA BR BKN070CB
KZLC FIR / North America



MET'MAP, your aeronautical weather chart ! - Copyright ORBIFLY December 2007 - Disclaimer

ORBIFLY MET'MAP TEAM :

Programming & Development : Alexandra Zaïnal
Concept & original design : Baudouin d'Aumeries
Assistance for programming : Marc-Olivier Méhu
Technical & hardware support : Manuel Goepfert

Contact : metmap@orbifly.com




SOURCES & CREDITS :

   NOAA       Earth
Advisory